Regional Weather Roundup
Issued by NWS

Home | Current Version | Previous Version | Graphics & Text | Print | Product List | Glossary On
Versions: 1 2 3 4 5 6 7 8 9 10 11 12 13 14 15 16 17 18 19 20 21 22 23 24 25 26 27 28 29 30 31 32 33 34 35 36 37 38 39 40 41 42 43 44 45 46 47 48 49 50
013
ASUS45 KSLC 261510
RWRUT

UTAH REGIONAL WEATHER ROUNDUP
NATIONAL WEATHER SERVICE SALT LAKE CITY UT
900 AM MDT TUE SEP 26 2017

UTZ001>011-023>025-261600-

NORTHERN UTAH

CITY           SKY/WX    TMP DP  RH WIND       PRES   REMARKS
BRIGHAM CITY     N/A     41  34  76 NW5       30.19S
DUGWAY         MOSUNNY   41  34  77 CALM      30.16R
HILL AFB       SUNNY     44  32  64 E17G26    30.16S
LOGAN            N/A     41  36  82 CALM      30.22R
OGDEN            N/A     46  34  62 W5        30.16R
SALT LAKE CITY   N/A     48  37  65 CALM      30.16R
TOOELE VALLEY    N/A     45  36  70 CALM      30.17R
WENDOVER         N/A     53  32  44 N9        30.17R
HEBER CITY       N/A     34  32  93 CALM      30.21S
WEST JORDAN      N/A     47  40  75 N7        30.17S

$$

UTZ011>015-024>027-261600-

CENTRAL/NORTHEAST UTAH

CITY           SKY/WX    TMP DP  RH WIND       PRES   REMARKS
PROVO AIRPORT    N/A     43  37  79 E5        30.17S
MOAB/CANYONLAN   N/A     49  28  44 CALM      30.11R
DELTA            N/A     45  34  65 NE3       30.14R
PRICE            N/A     49  29  46 CALM      30.15R
RICHFIELD      SUNNY     36  36 100 CALM      30.19R
ROOSEVELT        N/A     43  36  75 CALM      30.22S
VERNAL           N/A     47  33  58 CALM      30.20S

$$

UTZ013>016-019>022-027-261600-

SOUTHERN UTAH

CITY           SKY/WX    TMP DP  RH WIND       PRES   REMARKS
BRYCE CANYON     N/A     35  28  75 W3        30.16S
CEDAR CITY       N/A     42  36  79 CALM      30.12R
MILFORD          N/A     42  36  79 N9        30.13R
HANKSVILLE       N/A     46  28  49 CALM      30.15R
BLANDING         N/A     53  26  34 CALM      30.18S

$$

REGIONAL REPORTS     COLORADO/ARIZONA

CITY           SKY/WX    TMP DP  RH WIND       PRES   REMARKS
CRAIG, CO        N/A     34  28  79 CALM      30.24R
GRAND JUNCTION   N/A     48  31  51 SE13      30.15R
RIFLE, CO        N/A     40  32  73 CALM      30.19R
MONTROSE, CO     N/A     43  30  60 CALM      30.19S
CORTEZ, CO       N/A     44  28  53 CALM      30.12R
PAGE, AZ         N/A     56  26  31 CALM      30.05R
GRAND CANYON     N/A     53  21  28 E14G23    30.08S
KINGMAN, AZ      N/A     56  30  37 E7        29.94R
FLAGSTAFF, AZ    N/A     47  18  31 E8        30.09R

$$

REGIONAL REPORTS    NEVADA/IDAHO/WYOMING

CITY           SKY/WX    TMP DP  RH WIND       PRES   REMARKS
LAS VEGAS, NV  PTSUNNY   66  30  26 N14       29.93S
ELY, NY          N/A     32  28  85 S6        30.17R WCI  26
ELKO, NV         N/A     36  32  85 SW3       30.18R
POCATELLO, ID  PTSUNNY   41  36  82 CALM      30.22R
BURLEY, ID       N/A     42  36  79 CALM      30.20R
FORT BRIDGER,    N/A     37  34  91 CALM      30.27S
EVANSTON, WY     N/A     35  30  82 NE3       30.23R
ROCK SPRINGS,    N/A     34  30  85 CALM      30.25R

$$




USA.gov is the U.S. government's official web portal to all federal, state and local government web resources and services.